User: anonymous   Login
Location: Caltech
(34.1382°N, 118.1253°W)
Time: 21:24:41
(UTC-07:00)
Language:

Cosmos 1833 Rocket - Orbit

View from above orbital plane
View from above orbital plane
View from above satellite
View from above satellite

Ground track
Ground track

The orbit data is extracted from the following two-line orbital elements,

1 17590U 87027B   15087.15463779  .00000081  00000-0  64588-4 0  9993
2 17590 071.0029 059.8396 0002800 112.2648 247.8772 14.16687090449115
Epoch (UTC): 28 March 2015 03:42:40
Eccentricity: 0.0002800
inclination: 71.0029°
perigee height: 834 km
apogee height: 838 km
right ascension of ascending node: 59.8396°
argument of perigee: 112.2648°
revolutions per day: 14.16687090
mean anomaly at epoch: 247.8772°
orbit number at epoch: 44911

The dashed part of the orbit path shows where the satellite is in the earth's shadow,  

DLR